Regional Weather Roundup
Issued by NWS

Home | Current Version | Previous Version | Text Only | Print | Product List | Glossary Off
Versions: 1 2 3 4 5 6 7 8 9 10 11 12 13 14 15 16 17 18 19 20 21 22 23 24 25 26 27 28 29 30 31 32 33 34 35 36 37 38 39 40 41 42 43 44 45 46 47 48 49 50

000
ASUS45 KSLC 211510
RWRUT

UTAH REGIONAL WEATHER ROUNDUP
NATIONAL WEATHER SERVICE SALT LAKE CITY UT
800 AM MST WED FEB 21 2018

UTZ001>011-023>025-211600-

NORTHERN UTAH

CITY           SKY/WX    TMP DP  RH WIND       PRES   REMARKS
BRIGHAM CITY   CLOUDY    13   6  71 NW3       30.17S
HILL AFB       MOCLDY     8  -2  64 E21       30.12S WCI -12
LOGAN          CLOUDY     6  -1  73 CALM      30.18R
OGDEN          CLOUDY    13   2  61 S7        30.14R WCI   3
SALT LAKE CITY MOCLDY    18   8  65 SE6       30.16R WCI  10
TOOELE VALLEY  MOCLDY    12   5  73 S13       30.15R WCI  -3
WENDOVER       MOCLDY    17  10  74 CALM      30.15R
HEBER CITY       N/A     -2  -6  84 CALM      30.13R
WEST JORDAN    MOCLDY    14  10  83 S8        30.14R WCI   3

$$

UTZ011>015-024>027-211600-

CENTRAL/NORTHEAST UTAH

CITY           SKY/WX    TMP DP  RH WIND       PRES   REMARKS
PROVO AIRPORT  PTCLDY    11   1  64 S10       30.18R WCI  -3
MOAB/CANYONLAN MOCLDY    22  14  71 SE7       30.14R WCI  13
DELTA          CLOUDY     1  -2  85 CALM      30.12R
PRICE          PTCLDY     9  -3  58 NE3       30.08S
RICHFIELD      CLEAR     10   7  85 CALM      30.14R
VERNAL         CLEAR     -1  -7  75 CALM      30.18S

$$

UTZ013>016-019>022-027-211600-

SOUTHERN UTAH

CITY           SKY/WX    TMP DP  RH WIND       PRES   REMARKS
BRYCE CANYON   CLOUDY     4  -3  73 CALM      30.00S
CEDAR CITY     CLOUDY    11   6  81 CALM      30.04R
MILFORD        CLOUDY     5   0  79 CALM      30.09R
ST GEORGE      MOSUNNY   27  20  75 SE3       30.13S
HANKSVILLE     MOCLDY    14   1  57 CALM      30.19R
KANAB          CLOUDY    25   3  39 N9        30.11R WCI  15
BLANDING         N/A     21   9  58 CALM      30.18S

$$

REGIONAL REPORTS     COLORADO/ARIZONA

CITY           SKY/WX    TMP DP  RH WIND       PRES   REMARKS
CRAIG, CO      SUNNY    -11 -17  75 SW6       30.15R WCI -25
GRAND JUNCTION SUNNY     20  10  65 SE16      30.17R WCI   6
RIFLE, CO      SUNNY      6   2  83 SE3       30.18R
MONTROSE, CO   SUNNY      8   3  80 S5        30.20R WCI   0
CORTEZ, CO     PTSUNNY   15   8  73 E3        30.12R
COLORADO CITY  CLOUDY    30   3  31 NE12      30.08R WCI  21
PAGE, AZ       MOCLDY    26   9  48 S3        30.10R
GRAND CANYON   PTCLDY    15   8  73 E3        30.01R
KINGMAN, AZ    CLEAR     24   2  38 CALM      30.06R
FLAGSTAFF, AZ  PTCLDY     8   3  80 CALM      29.99S

$$

REGIONAL REPORTS    NEVADA/IDAHO/WYOMING

CITY           SKY/WX    TMP DP  RH WIND       PRES   REMARKS
LAS VEGAS, NV  CLOUDY    40   1  19 N3        30.11R
ELY, NY        CLOUDY    13   3  64 S3        30.02R
ELKO, NV       CLOUDY     8   2  76 CALM      30.09R
POCATELLO, ID  PTCLDY     7   3  84 NE8       30.15R WCI  -6
BURLEY, ID     MOCLDY    12   6  77 N5        30.13R WCI   4
EVANSTON, WY   MOCLDY     0 -12  57 S3        30.02R
ROCK SPRINGS,  PTCLDY    -5 -10  79 CALM      30.09R

$$



USA.gov is the U.S. government's official web portal to all federal, state and local government web resources and services.